This is the latest recevied weather packets stored in our database for station/object HB9FHL-13. If no packets are shown the sender has not sent any weather packets the latest 10 day(s).
| Time | Temp. | Humidity | Pressure | Rain* | Wind** | Luminosity | Snow |
|---|---|---|---|---|---|---|---|
| 1778024569 | 12.78° C | - | 1008.6 hPa | 0 mm | - | - | - |
| 1778024269 | 13.33° C | - | 1007 hPa | 0 mm | - | - | - |
| 1778023968 | 12.78° C | - | 1010.7 hPa | 0 mm | - | - | - |
| 1778023668 | 13.89° C | - | 1013 hPa | 0 mm | - | - | - |
| 1778023368 | 12.78° C | - | 1004.2 hPa | 0 mm | - | - | - |
| 1778023068 | 13.33° C | - | 1007.2 hPa | 0 mm | - | - | - |
| 1778022767 | 12.78° C | - | 1009.6 hPa | 0 mm | - | - | - |
| 1778022466 | 13.33° C | - | 1008.1 hPa | 0 mm | - | - | - |
| 1778022165 | 12.78° C | - | 1008.3 hPa | 0 mm | - | - | - |
| 1778021865 | 12.78° C | - | 1007.1 hPa | 0 mm | - | - | - |
| 1778021565 | 13.33° C | - | 1007 hPa | 0 mm | - | - | - |
| 1778021264 | 13.89° C | - | 1007 hPa | 0 mm | - | - | - |
| 1778020964 | 13.33° C | - | 1011.3 hPa | 0 mm | - | - | - |
| 1778020662 | 13.33° C | - | 1011.7 hPa | 0 mm | - | - | - |
| 1778020362 | 13.33° C | - | 1013.2 hPa | 0 mm | - | - | - |
| 1778020061 | 13.33° C | - | 1011.7 hPa | 0 mm | - | - | - |
| 1778019764 | 12.78° C | - | 1003 hPa | 0 mm | - | - | - |
| 1778019460 | 12.78° C | - | 1013.9 hPa | 0 mm | - | - | - |
| 1778019160 | 12.78° C | - | 1008.7 hPa | 0 mm | - | - | - |
| 1778018859 | 12.78° C | - | 1010.6 hPa | 0 mm | - | - | - |
| 1778018556 | 12.22° C | - | 1010 hPa | 0 mm | - | - | - |
| 1778018256 | 12.78° C | - | 1006.4 hPa | 0 mm | - | - | - |
| 1778017955 | 12.78° C | - | 1009.6 hPa | 0 mm | - | - | - |
| 1778017655 | 13.33° C | - | 1009.6 hPa | 0 mm | - | - | - |
| 1778017354 | 12.22° C | - | 1007.1 hPa | 0 mm | - | - | - |
* Rain since midnight (hover to see other rain measurements)
** Current wind speed in m/s (hover to see current wind gust speed)